Simultaneous Nadir Overpasses (SNOs) Predictions

Prediction of SNOs between NOAA-19 and NPP Satellite Orbit:

Table of predicted SNOs for the next 14.0 days since TLE Epoch: 11/19/2022
Index Date (NOAA-19) Time (NOAA-19) Lat,Lon (NOAA-19) SZA (NOAA-19 ) Date (NPP) Time (NPP) Lat,Lon (NPP) SZA (NPP ) Distance(km) Time Diff (sec)
1 12/02/2022 15:01:14 -75.98, 117.22 81.66 12/02/2022 15:02:27 -76.04, 117.88 81.65 18.90 73
2 12/02/2022 15:52:08 76.09, -75.10 98.44 12/02/2022 15:53:14 76.11, -75.04 98.44 2.28 66
3 12/02/2022 16:43:10 -76.14, 92.32 81.52 12/02/2022 16:43:59 -76.14, 92.17 81.53 3.90 49
4 12/02/2022 17:34:07 76.12,-100.50 98.47 12/02/2022 17:34:44 76.12,-100.44 98.46 1.41 37
5 12/02/2022 18:25:10 -76.12, 66.75 81.53 12/02/2022 18:25:29 -76.15, 66.77 81.51 2.70 19
6 12/02/2022 19:16:06 76.15,-125.90 98.50 12/02/2022 19:16:14 76.13,-125.85 98.48 2.63 8
7 12/02/2022 20:07:09 -76.15, 41.36 81.50 12/02/2022 20:06:59 -76.16, 41.37 81.49 0.65 10
8 12/02/2022 20:58:05 76.17,-151.29 98.53 12/02/2022 20:57:45 76.18,-151.41 98.55 3.08 20
9 12/02/2022 21:49:08 -76.18, 15.96 81.46 12/02/2022 21:48:29 -76.16, 15.97 81.47 1.50 39
10 12/02/2022 22:40:04 76.20,-176.69 98.56 12/02/2022 22:39:15 76.19,-176.81 98.57 3.28 49
11 12/02/2022 23:31:07 -76.20, -9.44 81.43 12/02/2022 23:29:59 -76.17, -9.43 81.45 3.57 68
12 12/03/2022 00:22:00 76.36, 158.42 98.70 12/03/2022 00:20:48 76.33, 157.30 98.75 29.35 72



Historial Predications of SNOs between NOAA-19 and NPP
